7 * 24
多渠道服务支持
STARLINK-35764是美国SpaceX星链项目旗下的一颗低轨卫星,于2025年12月15日发射升空,隶属于“星链”星座组网卫星。星链项目旨在构建全球卫星互联网通信系统,该卫星入轨后将助力提升星座网络覆盖密度,增强全球范围内尤其是偏远区域的互联网接入服务能力,推动卫星互联网的部署进程。
美国
(US)
| 数据来源 | 国际轨道数据 |
| 星历时间: | 2026-09-11T13:30:38+0800 11小时前 查看轨道信息 |
| 半长轴: | 6861.128km |
| 偏心率: | 0.0001605 |
| 轨道倾角: | 43.001° |
| 近地点辐角 | 246.419° |
| 升交点赤经 | 201.035° |
| 平近点角 | 113.650° |
| 近地点: | 481.889km |
| 远地点: | 484.093km |
| 周期: | 94.266分钟 |
| 每日圈数: | 15.275997 |